Location: ČR
(50.0000°N, 15.0000°E)
Time: 01:50:24
(UTC+00:00)

N. Korean satellite - Pass Details

Date: 02 October 2021
Orbit: 450 x 495 km, 97.3° (Epoch: 22 October)

Event Time Altitude Azimuth Distance (km) Brightness Sun altitude
Rises 03:21:42 0° 28° (NNE) 2,551 10.9 -16.7°
Reaches altitude 10° 03:24:21 10° 49° (NE) 1,674 10.3 -16.3°
Maximum altitude 03:26:45 17° 91° (E) 1,310 9.8 -16.0°
Drops below altitude 10° 03:29:10 10° 133° (SE) 1,678 9.7 -15.6°
Sets 03:31:49 0° 155° (SSE) 2,560 10.4 -15.2°
